Jacksonville NAS, FL

6:35 PM EDT on June 28, 2017 (GMT -0400)
Jacksonville Naval Air Station

Weather History for KNIP - August, 2013

Change the Weather History Date:

Wednesday, August 14, 2013

  Actual Average Record
Temperature  
Mean Temperature 83 °F -  
Max Temperature 96 °F 88 °F 98 °F (1999)
Min Temperature 73 °F 73 °F 70 °F (1996)
Cooling Degree Days 18    
Growing Degree Days 33 (Base 50)    
Moisture  
Dew Point 73 °F    
Average Humidity 74    
Maximum Humidity 100    
Minimum Humidity 43    
Precipitation  
Precipitation 1.65 in - - ()
Sea Level Pressure  
Sea Level Pressure 29.94 in    
Wind  
Wind Speed 9 mph (SSW)    
Max Wind Speed 28 mph    
Max Gust Speed 50 mph    
Visibility 8 miles    
Events Rain , Thunderstorm    
Averages and records for this station are not official NWS values.
T = Trace of Precipitation, MM = Missing Value Source: NWS Daily Summary

Daily Weather History Graph

Daily Weather History Graph

Search for Another Location

Airport or City:

Trip Planner

Search our weather history database for the weather conditions in past years. The results will help you decide how hot, cold, wet, or windy it might be!

Date:

Astronomy

Aug. 14, 2013 Rise Set
Actual Time 6:53 AM EDT 8:08 PM EDT
Civil Twilight 6:28 AM EDT 8:34 PM EDT
Nautical Twilight 5:58 AM EDT 9:04 PM EDT
Astronomical Twilight 5:26 AM EDT 9:35 PM EDT
Moon 2:14 PM EDT (8/14) 12:18 AM EDT (8/14)
Length of Visible Light 14h 05m
Length of Day
13h 15m
First Quarter, 52% of the Moon is Illuminated
Aug 14
First Quarter
Aug 20
Full
Aug 28
Last Quarter
Sep 5
New
Sep 12
First Quarter

Hourly Weather History & Observations

Time (EDT) Temp. Heat Index Dew Point Humidity Pressure Visibility Wind Dir Wind Speed Gust Speed Precip Events Conditions
12:53 AM 82.0 °F 87.9 °F 73.9 °F 76% 29.97 in 10.0 mi WSW 9.2 mph - N/A   Clear
1:53 AM 82.0 °F 87.9 °F 73.9 °F 76% 29.96 in 10.0 mi WSW 8.1 mph - N/A   Clear
2:53 AM 80.1 °F 85.1 °F 75.0 °F 85% 29.94 in 10.0 mi West 5.8 mph - N/A   Clear
3:53 AM 80.1 °F 85.1 °F 75.0 °F 85% 29.92 in 10.0 mi SSW 4.6 mph - N/A   Clear
4:53 AM 80.1 °F 85.1 °F 75.0 °F 85% 29.93 in 10.0 mi South 6.9 mph - N/A   Clear
5:53 AM 79.0 °F - 75.0 °F 88% 29.94 in 10.0 mi SW 4.6 mph - N/A   Partly Cloudy
6:53 AM 78.1 °F - 75.0 °F 90% 29.94 in 10.0 mi WSW 5.8 mph - N/A   Partly Cloudy
7:53 AM 79.0 °F - 75.0 °F 88% 29.96 in 10.0 mi WSW 8.1 mph - N/A   Partly Cloudy
8:53 AM 81.0 °F 86.2 °F 73.9 °F 79% 29.97 in 10.0 mi West 8.1 mph - N/A   Partly Cloudy
9:53 AM 84.0 °F 90.2 °F 73.0 °F 69% 29.97 in 10.0 mi WSW 6.9 mph - N/A   Partly Cloudy
10:53 AM 87.1 °F 94.5 °F 73.0 °F 63% 29.96 in 10.0 mi West 8.1 mph - N/A   Partly Cloudy
11:53 AM 89.1 °F 97.0 °F 73.0 °F 59% 29.96 in 10.0 mi West 6.9 mph - N/A   Scattered Clouds
12:53 PM 91.9 °F 97.4 °F 70.0 °F 48% 29.95 in 10.0 mi WSW 8.1 mph - N/A   Scattered Clouds
1:53 PM 93.0 °F 97.4 °F 68.0 °F 44% 29.93 in 10.0 mi WSW 10.4 mph - N/A   Scattered Clouds
2:53 PM 93.9 °F 98.6 °F 68.0 °F 43% 29.91 in 10.0 mi SW 9.2 mph - N/A   Scattered Clouds
3:53 PM 93.0 °F 100.7 °F 72.0 °F 50% 29.88 in 10.0 mi South 11.5 mph - 0.00 in Rain Light Rain
4:08 PM 93.9 °F 102.1 °F 72.0 °F 49% 29.89 in 10.0 mi SSE 13.8 mph - 0.00 in   Mostly Cloudy
4:53 PM 93.0 °F 100.7 °F 72.0 °F 50% 29.88 in 10.0 mi West 8.1 mph - 0.00 in   Scattered Clouds
5:55 PM 91.9 °F 99.5 °F 72.0 °F 52% 29.88 in 10.0 mi Variable 6.9 mph - N/A Thunderstorm Thunderstorm
6:18 PM 90.0 °F 96.9 °F 72.0 °F 55% 29.89 in 10.0 mi Variable 5.8 mph - N/A   Mostly Cloudy
6:53 PM 91.0 °F 95.6 °F 69.1 °F 48% 29.89 in 10.0 mi ESE 6.9 mph - N/A   Mostly Cloudy
7:27 PM 87.1 °F 94.5 °F 73.0 °F 63% 29.90 in 10.0 mi ESE 11.5 mph - N/A Thunderstorm Thunderstorm
7:38 PM 84.0 °F 91.9 °F 75.0 °F 74% 29.93 in 7.0 mi SSE 21.9 mph 26.5 mph 0.00 in Rain , Thunderstorm Light Thunderstorms and Rain
7:49 PM 78.8 °F - 73.4 °F 83% 29.89 in 0.8 mi ESE 27.6 mph 33.4 mph 0.16 in Rain , Thunderstorm Heavy Thunderstorms and Rain
7:53 PM 78.1 °F - 73.9 °F 87% 29.90 in 2.0 mi ESE 19.6 mph 49.5 mph 0.19 in Rain , Thunderstorm Heavy Thunderstorms and Rain
7:57 PM 79.0 °F - 71.1 °F 77% 29.93 in 3.0 mi ESE 18.4 mph 49.5 mph 0.00 in Rain , Thunderstorm Light Thunderstorms and Rain
8:18 PM 75.0 °F - 73.0 °F 94% 29.97 in 2.0 mi ESE 21.9 mph 31.1 mph 0.07 in Rain , Thunderstorm Heavy Thunderstorms and Rain
8:27 PM 73.9 °F - 73.0 °F 97% 30.00 in 1.0 mi ESE 21.9 mph - 0.23 in Rain , Thunderstorm Heavy Thunderstorms and Rain
8:53 PM 73.9 °F - 73.9 °F 100% 30.00 in 1.5 mi Calm Calm - 0.93 in Rain , Thunderstorm Heavy Thunderstorms and Rain
9:06 PM 73.9 °F - 72.0 °F 93% 30.00 in 0.8 mi South 13.8 mph - 0.40 in Rain , Thunderstorm Heavy Thunderstorms and Rain
9:13 PM 75.0 °F - 72.0 °F 90% 29.99 in 2.0 mi South 9.2 mph - 0.45 in Rain , Thunderstorm Heavy Thunderstorms and Rain
9:24 PM 75.0 °F - 72.0 °F 90% 29.97 in 4.0 mi WNW 9.2 mph - 0.53 in Rain , Thunderstorm Light Thunderstorms and Rain
9:41 PM 75.0 °F - 72.0 °F 90% 29.97 in 7.0 mi Calm Calm - 0.53 in Thunderstorm Thunderstorm
9:53 PM 75.9 °F - 72.0 °F 87% 29.95 in 10.0 mi Calm Calm - 0.53 in   Overcast
10:53 PM 78.1 °F - 73.9 °F 87% 29.99 in 10.0 mi South 10.4 mph - N/A   Overcast
11:53 PM 79.0 °F - 73.9 °F 84% 30.00 in 10.0 mi South 10.4 mph - N/A   Mostly Cloudy